Wind_Speed
19 19 21 25 31 31 32 31 29 24 31 32 35 40 36 39 41 40 39 41 39 39 38 39 38 38 40 40 41 42 42 40 37 37 41 43 44 45 45 46 48 50 51 51
18 16 16 22 25 26 27 27 24 31 33 36 37 40 42 35 37 37 37 40 39 39 40 38 39 40 41 42 42 42 41 40 39 40 42 45 48 50 49 50 52 54 55 54
20 21 23 25 25 27 29 30 29 31 34 38 40 43 44 40 41 41 43 44 38 36 38 40 41 42 42 41 42 43 43 41 38 40 41 43 45 47 49 51 50 50 50 51
25 29 28 29 29 30 33 31 33 36 40 40 40 41 38 39 40 41 40 35 28 33 38 39 41 40 40 42 44 41 38 36 38 41 43 46 48 50 51 54 55 56 56 56
29 32 32 31 30 34 33 34 35 36 38 40 40 40 34 37 38 38 34 29 36 37 36 38 39 39 37 37 37 36 36 35 37 41 44 47 49 52 56 55 57 59 61 62
28 29 32 35 35 37 33 34 35 37 38 40 39 41 43 39 41 38 34 37 38 36 33 31 34 37 39 41 38 35 35 36 38 42 44 44 45 50 49 50 53 57 59 59
29 32 31 33 34 36 36 36 36 37 38 39 38 37 38 40 40 41 43 43 36 34 33 34 36 41 43 40 38 38 37 35 37 39 42 44 47 49 49 50 54 60 60 62
30 32 31 33 35 37 37 36 36 38 39 38 38 40 42 45 41 42 42 39 39 38 36 39 39 41 42 43 42 40 38 41 43 47 49 50 49 47 48 52 59 64 62 62
19 36 34 33 33 34 38 37 37 38 38 37 37 37 36 35 32 36 41 42 41 39 35 39 41 43 45 45 44 43 44 48 52 55 55 53 51 52 54 59 64 64 66 63
8 13 17 33 35 38 37 39 39 41 41 40 39 38 35 34 33 35 38 41 43 45 44 43 45 44 44 44 45 49 54 57 61 62 59 58 58 60 59 62 62 64 65 65
11 12 12 18 19 32 41 44 45 45 47 46 44 38 31 32 34 37 41 43 44 42 42 43 44 47 50 53 54 57 60 62 63 62 65 67 65 63 65 60 54 58 63 62
17 17 16 17 21 21 23 27 32 36 38 38 37 35 33 31 32 28 32 35 39 39 40 43 44 45 47 49 54 57 60 64 68 68 68 67 66 67 62 57 57 55 57 57
20 19 18 18 20 21 21 22 24 27 30 34 36 37 33 32 35 37 36 39 40 40 47 47 46 47 51 55 59 61 63 65 66 67 69 69 66 61 61 60 60 59 56 56
23 21 21 22 24 23 25 25 27 28 29 30 32 34 37 40 42 40 42 43 43 46 47 48 50 52 54 56 57 60 63 66 67 67 66 65 65 65 63 62 60 60 61 59
23 24 23 22 24 25 26 27 27 29 30 33 30 34 34 40 39 43 44 46 47 48 47 49 52 53 55 58 61 64 63 62 60 60 63 64 64 63 64 61 61 62 62 62
23 24 23 23 26 27 26 25 30 33 33 33 34 35 38 39 40 40 43 45 46 47 49 52 53 55 56 59 57 54 53 56 60 60 60 61 64 63 64 66 64 63 61 59
23 23 24 23 26 27 29 29 31 32 34 33 34 35 35 37 39 41 45 47 49 51 52 54 55 53 52 50 48 51 53 54 54 55 57 58 61 64 63 64 66 67 67 68
22 23 24 23 24 25 26 28 29 29 29 30 31 31 32 35 38 42 45 46 47 49 49 48 48 47 42 44 46 48 48 49 50 52 53 54 56 57 61 64 68 70 72 69
23 23 23 22 21 24 23 24 25 26 26 29 29 29 31 33 35 35 37 38 39 41 42 42 40 40 43 44 44 41 41 43 44 45 48 53 58 64 68 72 75 74 71 62
22 22 21 22 21 21 20 21 23 23 25 24 28 30 32 32 33 32 35 37 40 41 41 39 39 38 37 37 38 39 37 39 43 49 55 62 67 70 74 76 76 70 57 50
21 21 22 22 21 19 19 23 24 23 20 22 23 26 30 33 35 34 36 37 41 41 41 39 35 35 35 34 30 32 37 44 48 53 59 66 72 73 70 67 67 57 47 38
21 22 21 23 22 18 18 19 21 21 20 22 24 26 28 29 31 34 34 37 38 36 36 35 27 28 26 28 30 34 40 45 50 56 62 66 67 60 55 55 51 45 40 36
22 20 21 21 21 20 19 18 19 20 23 24 27 28 29 32 33 33 30 29 30 28 23 21 21 20 26 28 32 37 41 46 51 57 62 66 55 55 52 46 41 36 30 33
22 22 23 21 24 23 19 24 20 23 25 25 27 28 28 28 26 23 29 28 24 19 17 16 15 21 27 30 33 38 39 45 52 58 61 50 49 47 45 40 33 26 23 26
24 23 23 24 23 26 27 27 30 30 27 29 30 26 26 21 23 25 23 18 18 13 12 13 16 22 22 25 31 36 38 44 52 55 46 42 45 44 37 30 19 16 20 22
26 25 26 26 25 25 24 25 27 27 28 30 28 25 19 21 22 17 14 11 7 8 10 12 18 18 24 30 32 34 36 44 50 44 43 42 45 38 28 22 13 10 18 15
Wind_Direction
210 202 204 209 213 213 215 219 222 215 221 226 230 237 224 226 239 238 237 243 245 247 248 250 254 254 255 257 260 261 262 266 265 264 265 265 268 268 267 266 266 267 264 262
220 210 214 212 201 201 213 212 200 210 222 229 232 239 245 234 240 240 237 239 240 242 245 246 247 248 251 252 254 255 258 263 265 266 266 266 266 267 267 266 267 268 268 268
211 218 213 212 212 213 212 203 194 202 218 219 223 228 234 231 236 240 244 247 246 247 247 248 247 247 247 253 258 262 263 265 264 262 265 266 267 268 269 269 268 268 270 271
218 222 222 222 221 221 220 218 212 206 218 227 228 233 239 240 237 239 245 256 247 245 246 249 250 256 260 258 258 257 256 255 254 254 255 256 258 261 265 269 273 275 276 273
229 234 230 231 230 237 235 233 232 225 225 234 239 245 239 249 254 256 257 255 254 253 260 261 262 263 265 266 266 266 265 263 258 257 256 256 259 260 263 266 268 270 272 274
226 231 235 232 227 235 238 240 243 243 243 244 242 247 251 243 250 257 259 255 257 263 262 261 262 262 267 267 268 263 257 252 250 252 257 262 266 264 266 268 270 270 270 270
227 228 229 230 230 233 232 231 233 240 244 248 249 249 255 256 252 252 256 265 267 259 255 258 260 263 264 264 264 261 259 261 263 262 264 274 274 272 276 280 278 275 273 274
224 226 230 234 235 238 242 243 240 242 244 247 249 251 251 255 256 257 260 257 257 258 260 261 258 261 261 262 267 271 275 277 275 279 282 279 274 274 278 283 275 271 270 270
236 229 231 234 235 238 241 244 249 251 253 255 254 252 256 258 258 255 255 260 261 260 260 260 256 256 260 264 268 271 273 279 284 285 283 282 282 282 277 272 272 274 274 272
258 256 245 240 233 235 237 244 247 252 255 255 256 256 261 265 260 255 254 254 256 261 259 256 257 259 263 270 274 276 278 280 280 281 281 279 277 278 276 272 275 279 280 281
273 244 239 245 237 239 243 244 245 248 253 256 260 260 258 252 248 254 253 254 257 263 267 269 269 267 266 268 272 275 276 278 278 277 278 279 279 278 274 279 277 273 275 277
266 254 228 228 244 245 247 248 252 251 255 255 256 256 259 251 255 258 258 263 263 260 265 265 266 268 269 273 272 273 274 275 277 277 278 279 278 278 285 280 278 273 273 273
260 255 257 252 250 251 255 254 255 253 253 253 255 255 252 255 257 255 257 257 259 254 266 273 271 269 269 269 269 271 272 273 275 277 279 283 286 283 280 279 279 277 277 277
251 251 250 250 254 259 262 263 263 264 264 266 263 262 251 253 255 256 254 254 258 258 264 265 266 268 269 270 271 274 276 278 279 282 285 286 283 283 282 279 279 281 283 283
251 252 251 251 253 256 265 275 278 269 266 266 266 260 255 258 257 260 260 261 265 265 261 258 263 267 267 268 273 276 277 280 282 279 279 281 282 281 281 280 284 287 290 290
249 251 252 252 253 256 262 271 272 275 278 272 270 269 264 264 265 264 265 266 268 270 270 271 272 271 273 276 278 281 282 279 280 283 284 283 282 282 282 283 284 286 286 285
253 255 254 250 254 258 263 269 274 274 271 270 267 266 266 266 268 268 269 271 273 272 271 271 274 277 277 282 282 280 281 282 284 284 282 284 283 283 284 285 286 285 286 287
258 257 259 257 256 260 269 274 278 277 271 267 266 267 270 270 270 270 270 273 276 278 278 278 279 280 282 283 284 284 287 286 283 282 285 288 288 289 290 289 287 285 283 281
255 257 260 259 259 267 276 278 275 271 268 268 271 270 268 270 270 274 279 282 280 278 279 281 281 281 284 283 282 285 286 287 291 296 296 296 296 296 293 289 286 285 285 283
256 257 256 258 262 274 283 280 272 269 267 265 263 265 267 271 273 277 278 279 278 278 279 278 281 284 285 290 294 292 294 299 298 296 297 296 295 294 293 292 292 291 288 281
255 256 255 257 265 273 280 275 272 272 269 263 263 266 272 276 279 279 279 281 281 278 278 281 287 291 290 293 295 303 302 297 298 302 302 301 299 299 299 297 292 291 279 271
254 256 259 261 267 272 270 267 270 269 268 269 274 279 282 280 280 278 277 274 272 272 276 281 284 286 291 304 307 300 302 307 309 309 306 305 306 304 302 303 297 284 275 267
257 257 258 264 267 274 269 267 275 276 274 278 283 284 281 276 275 278 279 278 280 279 278 282 280 292 304 307 309 315 314 314 315 313 310 313 311 307 304 301 296 282 270 250
258 259 263 267 268 271 270 274 278 285 285 288 290 291 284 282 282 278 281 280 280 275 272 280 296 311 309 303 311 316 319 321 320 316 316 318 315 309 313 303 297 274 259 259
253 260 264 265 263 261 264 273 279 282 288 292 293 291 288 278 280 283 278 274 270 260 285 299 310 312 318 320 320 326 323 325 323 322 324 324 323 316 313 312 304 266 258 222
254 257 260 263 267 268 267 269 274 281 286 290 291 288 280 285 291 281 272 266 258 271 309 310 316 317 327 328 328 327 327 331 331 331 334 334 330 316 311 304 304 266 183 185
Height
5711 5715 5719 5724 5729 5734 5738 5744 5751 5757 5757 5761 5764 5764 5775 5776 5780 5785 5789 5792 5795 5797 5800 5802 5805 5808 5809 5811 5812 5811 5812 5812 5815 5815 5815 5814 5813 5812 5812 5813 5812 5810 5810 5811
5714 5718 5722 5724 5728 5731 5735 5740 5748 5751 5754 5757 5759 5761 5763 5770 5774 5777 5781 5784 5788 5791 5792 5795 5798 5798 5799 5801 5803 5803 5804 5805 5805 5804 5803 5802 5801 5800 5800 5799 5799 5799 5798 5799
5713 5716 5717 5722 5726 5729 5732 5736 5742 5746 5747 5750 5753 5756 5758 5765 5768 5771 5773 5775 5781 5785 5786 5786 5788 5788 5790 5792 5793 5794 5796 5798 5798 5795 5794 5793 5791 5789 5789 5788 5788 5788 5788 5787
5709 5710 5714 5717 5721 5724 5727 5732 5737 5740 5741 5744 5748 5752 5755 5759 5762 5764 5766 5773 5774 5774 5774 5775 5777 5781 5784 5784 5783 5786 5788 5789 5788 5786 5785 5783 5782 5780 5779 5777 5776 5775 5776 5775
5705 5706 5709 5713 5719 5719 5726 5728 5731 5735 5738 5739 5742 5745 5751 5750 5753 5757 5761 5763 5763 5764 5768 5770 5771 5772 5772 5773 5775 5777 5776 5776 5776 5775 5773 5772 5771 5770 5769 5769 5767 5764 5762 5760
5698 5702 5705 5707 5710 5711 5717 5722 5725 5729 5731 5733 5737 5738 5739 5745 5746 5749 5752 5753 5756 5759 5760 5761 5761 5762 5762 5763 5764 5765 5766 5766 5764 5762 5762 5762 5761 5759 5759 5757 5754 5750 5748 5747
5694 5696 5699 5702 5705 5706 5710 5714 5717 5720 5723 5727 5730 5733 5734 5736 5740 5742 5743 5746 5748 5749 5750 5752 5753 5752 5753 5753 5753 5753 5753 5753 5752 5751 5751 5749 5748 5747 5746 5743 5738 5734 5733 5733
5688 5692 5695 5696 5700 5702 5704 5708 5712 5713 5716 5720 5723 5725 5727 5726 5732 5734 5734 5737 5737 5739 5742 5743 5743 5742 5742 5741 5740 5741 5740 5737 5736 5735 5735 5735 5736 5736 5734 5729 5724 5719 5719 5719
5680 5684 5685 5689 5694 5698 5697 5700 5703 5705 5707 5711 5713 5717 5719 5721 5723 5725 5724 5724 5725 5729 5732 5732 5732 5731 5730 5729 5728 5727 5728 5727 5726 5724 5723 5723 5722 5721 5718 5714 5709 5706 5703 5703
5679 5679 5681 5683 5686 5689 5691 5693 5696 5696 5697 5700 5703 5707 5711 5712 5714 5714 5714 5714 5714 5715 5718 5720 5720 5720 5720 5720 5719 5717 5715 5713 5712 5710 5709 5708 5706 5705 5703 5699 5696 5693 5689 5687
5676 5678 5679 5678 5678 5678 5681 5684 5687 5690 5690 5691 5694 5699 5704 5702 5702 5702 5704 5705 5706 5707 5707 5708 5708 5709 5709 5708 5707 5705 5703 5701 5699 5696 5694 5691 5689 5686 5683 5682 5681 5678 5674 5671
5670 5671 5674 5674 5672 5674 5676 5678 5679 5681 5684 5684 5686 5691 5692 5694 5695 5697 5695 5695 5697 5699 5698 5698 5698 5699 5698 5697 5696 5693 5690 5687 5683 5679 5674 5671 5668 5665 5665 5664 5662 5661 5659 5655
5664 5665 5666 5668 5670 5669 5670 5673 5673 5674 5675 5675 5677 5679 5685 5686 5685 5685 5686 5686 5686 5687 5687 5687 5687 5686 5685 5684 5681 5678 5674 5670 5665 5661 5658 5656 5654 5651 5647 5644 5642 5640 5637 5635
5657 5659 5660 5663 5663 5664 5664 5666 5666 5667 5668 5669 5670 5670 5675 5675 5673 5676 5675 5677 5678 5679 5679 5677 5675 5673 5671 5669 5667 5664 5661 5657 5653 5649 5645 5641 5636 5632 5629 5626 5623 5619 5615 5613
5651 5652 5653 5655 5656 5657 5658 5658 5659 5659 5659 5658 5662 5660 5663 5662 5666 5665 5667 5668 5667 5666 5666 5664 5663 5661 5658 5656 5653 5650 5647 5644 5640 5634 5629 5625 5620 5616 5612 5608 5604 5599 5594 5590
5645 5646 5647 5649 5649 5650 5652 5653 5651 5650 5651 5652 5652 5652 5652 5653 5655 5657 5656 5655 5656 5655 5653 5651 5648 5647 5645 5642 5639 5636 5633 5628 5623 5618 5613 5607 5602 5596 5592 5588 5584 5579 5576 5573
5638 5638 5640 5642 5642 5643 5645 5646 5645 5644 5643 5643 5642 5642 5642 5642 5643 5643 5642 5641 5640 5639 5638 5637 5635 5633 5630 5628 5624 5621 5618 5613 5608 5602 5596 5591 5586 5581 5576 5570 5564 5559 5554 5551
5631 5631 5633 5634 5635 5636 5637 5636 5636 5635 5635 5634 5633 5634 5634 5633 5632 5631 5629 5629 5628 5627 5625 5624 5622 5620 5618 5615 5611 5607 5603 5598 5592 5587 5582 5577 5570 5563 5556 5549 5543 5537 5533 5530
5624 5625 5626 5627 5628 5629 5629 5629 5628 5627 5628 5626 5625 5625 5625 5624 5624 5623 5621 5620 5618 5615 5613 5612 5610 5608 5607 5603 5599 5595 5590 5584 5579 5574 5567 5559 5550 5542 5534 5527 5519 5513 5508 5507
5617 5618 5621 5621 5621 5621 5621 5620 5620 5620 5621 5621 5619 5618 5618 5617 5617 5617 5613 5610 5608 5605 5603 5601 5600 5598 5594 5591 5587 5584 5579 5573 5567 5560 5552 5543 5533 5522 5512 5503 5494 5488 5485 5486
5611 5612 5614 5614 5614 5615 5614 5612 5612 5614 5618 5614 5614 5612 5611 5610 5608 5608 5605 5602 5598 5595 5594 5591 5590 5588 5584 5582 5579 5574 5569 5564 5556 5547 5536 5524 5512 5500 5488 5479 5470 5466 5466 5467
5604 5605 5607 5607 5607 5609 5608 5607 5608 5607 5607 5607 5607 5606 5604 5602 5600 5597 5596 5593 5590 5588 5587 5585 5584 5580 5578 5575 5571 5567 5560 5551 5541 5531 5520 5506 5493 5479 5469 5460 5452 5448 5449 5451
5599 5600 5601 5602 5601 5601 5601 5601 5601 5601 5601 5601 5600 5598 5596 5594 5591 5589 5586 5584 5583 5581 5580 5579 5578 5575 5571 5567 5563 5557 5548 5540 5530 5518 5503 5489 5476 5465 5453 5444 5437 5435 5436 5439
5592 5592 5593 5596 5596 5595 5595 5594 5596 5595 5594 5593 5591 5589 5587 5585 5583 5581 5579 5577 5575 5574 5574 5574 5572 5569 5564 5559 5554 5548 5540 5531 5519 5505 5490 5477 5465 5452 5441 5432 5426 5424 5428 5429
5586 5587 5588 5589 5590 5589 5589 5589 5588 5587 5586 5585 5583 5581 5580 5578 5577 5574 5572 5570 5570 5570 5570 5568 5566 5563 5559 5554 5548 5541 5533 5522 5509 5493 5480 5468 5455 5441 5432 5425 5420 5418 5421 5425
5579 5581 5582 5582 5583 5583 5583 5582 5581 5581 5580 5578 5576 5574 5573 5572 5569 5567 5566 5565 5566 5566 5565 5563 5561 5558 5555 5549 5542 5535 5526 5513 5499 5486 5472 5459 5445 5431 5424 5421 5419 5417 5419 5425